{"data":{"norad_id":63457,"intl_designator":"2025-069AA","name":"STARLINK-33795","alt_names":[],"object_type":"PAYLOAD","status":"ACTIVE","operator":null,"country":"US","launch_date":"2025-04-04","launch_site_code":"AFWTR","launch_vehicle":null,"mission":null,"orbit_class":"UNKNOWN","rcs_meters":null,"size_class":null,"mass_kg":null,"dimensions":null,"purposes":["comms"],"wikipedia_slug":null,"has_3d_model":false,"image_url":null,"decayed_at":null,"tle_current":{"epoch":"2026-09-20T09:34:45.782400Z","epoch_age_seconds":164251,"freshness":"FRESH","line1":"1 63457U 25069AA  26263.39914100  .00012064  00000+0  36703-3 0  9997","line2":"2 63457  53.1599 310.3847 0001303  79.1768 280.9381 15.34449484 83211","mean_motion":15.34449484,"eccentricity":0.0001303,"inclination_deg":53.1599,"raan_deg":310.3847,"arg_perigee_deg":79.1768,"mean_anomaly_deg":280.9381,"bstar":0.00036703,"rev_number":8321,"period_min":93.844731613204,"perigee_km":461.66482496367,"apogee_km":463.44750960307,"semimajor_km":6840.6931672834,"source":"CELESTRAK","updated_at":"2026-09-21T09:00:35.006374Z"}}}